This is the latest recevied weather packets stored in our database for station/object K3RTA-2. If no packets are shown the sender has not sent any weather packets the latest 10 day(s).
| Time | Temp. | Humidity | Pressure | Rain* | Wind** | Luminosity | Snow |
|---|---|---|---|---|---|---|---|
| 1777281304 | 2.78° C | 98% | 1022.6 hPa | 0 mm | - | - | - |
| 1777279504 | 3.33° C | 97% | 1022.4 hPa | 0 mm | - | - | - |
| 1777278605 | 3.33° C | 97% | 1022.7 hPa | 0 mm | - | - | - |
| 1777273205 | 3.89° C | 97% | 1021.5 hPa | 0 mm | - | - | - |
| 1777272904 | 3.89° C | 97% | 1021.5 hPa | 0 mm | - | - | - |
| 1777271704 | 4.44° C | 97% | 1021.5 hPa | 0 mm | - | - | - |
| 1777270205 | 4.44° C | 97% | 1021.5 hPa | 0 mm | - | - | - |
| 1777266905 | 5° C | 95% | 1021.9 hPa | 0 mm | - | - | - |
| 1777264804 | 6.11° C | 95% | 1021.9 hPa | 0 mm | - | - | - |
| 1777262404 | 6.67° C | 93% | 1021.8 hPa | 0 mm | - | - | - |
| 1777261504 | 7.22° C | 92% | 1021.9 hPa | 0 mm | - | - | - |
| 1777259705 | 7.78° C | 92% | 1021.9 hPa | 0 mm | - | - | - |
| 1777258504 | 7.78° C | 91% | 1021.9 hPa | 0 mm | - | - | - |
| 1777257004 | 8.33° C | 90% | 1021.8 hPa | 0 mm | - | - | - |
| 1777256705 | 8.33° C | 90% | 1021.8 hPa | 0 mm | - | - | - |
| 1777252805 | 8.33° C | 89% | 1021.7 hPa | 0 mm | - | - | - |
| 1777251004 | 8.89° C | 88% | 1021.5 hPa | 0 mm | - | - | - |
| 1777249504 | 9.44° C | 88% | 1021.3 hPa | 0 mm | - | - | - |
| 1777249205 | 9.44° C | 89% | 1021.3 hPa | 0 mm | - | - | - |
| 1777247404 | 9.44° C | 90% | 1021.1 hPa | 0 mm | - | - | - |
| 1777245604 | 9.44° C | 90% | 1020.9 hPa | 0 mm | - | - | - |
| 1777244405 | 9.44° C | 91% | 1020.7 hPa | 0 mm | - | - | - |
| 1777242904 | 9.44° C | 91% | 1020.5 hPa | 0 mm | - | - | - |
| 1777239304 | 9.44° C | 89% | 1019.8 hPa | 0 mm | - | - | - |
| 1777238105 | 9.44° C | 89% | 1019.8 hPa | 0 mm | - | - | - |
* Rain latest hour (hover to see other rain measurements)
** Current wind speed in m/s (hover to see current wind gust speed)